Regional Weather Roundup
Issued by NWS

Home | Current Version | Previous Version | Text Only | Print | Product List | Glossary Off
Versions: 1 2 3 4 5 6 7 8 9 10 11 12 13 14 15 16 17 18 19 20 21 22 23 24 25 26 27 28 29 30 31 32 33 34 35 36 37 38 39 40 41 42 43 44 45 46 47 48 49 50

000
ASUS43 KMKX 190000
RWRWI

WISCONSIN REGIONAL WEATHER ROUNDUP
NATIONAL WEATHER SERVICE MILWAUKEE/SULLIVAN WI
700 PM CDT SUN AUG 18 2019

NOTE: "FAIR" INDICATES FEW OR NO CLOUDS BELOW 12,000 FEET WITH NO
SIGNIFICANT WEATHER AND/OR OBSTRUCTIONS TO VISIBILITY.

WIZ001-002-006>008-014>016-023>028-190100-
NORTHWEST WISCONSIN

CITY           SKY/WX    TMP DP  RH WIND       PRES   REMARKS
SUPERIOR ARPT  FAIR      69  45  41 NW8G20    29.82R
6HR MIN TEMP:  69; 6HR MAX TEMP:  74;

ASHLAND        FAIR      69  48  47 W8        29.81R
6HR MIN TEMP:  69; 6HR MAX TEMP:  74;

HAYWARD        FAIR      69  47  45 W7        29.85R
6HR MIN TEMP:  69; 6HR MAX TEMP:  73;

SIREN          FAIR      70  47  42 W6        29.85S
CUMBERLAND     FAIR      68  48  49 NW7       29.86R
RICE LAKE      FAIR      70  52  53 W3        29.86S
6HR MIN TEMP:  67; 6HR MAX TEMP:  74;

CHETEK         FAIR      71  53  52 CALM      29.85S
LADYSMITH      FAIR      69  54  59 W8        29.86R
6HR MIN TEMP:  69; 6HR MAX TEMP:  75;

EAU CLAIRE     NOT AVBL
MENOMONIE      FAIR      68  49  50 W8        29.86S
6HR MIN TEMP:  68; 6HR MAX TEMP:  74;

NEW RICHMOND   FAIR      70  48  46 NW6       29.87R
OSCEOLA        FAIR      71  51  50 W8        29.88S
$$

WIZ003>005-009-010-017-018-190100-
NORTH CENTRAL WISCONSIN

CITY           SKY/WX    TMP DP  RH WIND       PRES   REMARKS
MANITOWISH WTR FAIR      66  50  57 W6        29.83R
6HR MIN TEMP:  64; 6HR MAX TEMP:  70;

ARBOR VITAE    FAIR      69  55  62 NW6       29.82R
WOODRUFF       FAIR      69  55  62 NW6       29.82R
RHINELANDER    FAIR      68  56  65 NW7       29.83R
6HR MIN TEMP:  68; 6HR MAX TEMP:  73; 6HR PCP: TRACE;

EAGLE RIVER    FAIR      67  54  62 NW9       29.82R
LAND O LAKES   FAIR      65  51  60 NW5       29.83S
6HR MIN TEMP:  65; 6HR MAX TEMP:  69;

PHILLIPS       FAIR      67  55  64 CALM      29.83R
6HR MIN TEMP:  66; 6HR MAX TEMP:  72;

TOMAHAWK       FAIR      69  55  62 W6        29.83R
MEDFORD        MOCLDY    68  57  67 W9        29.84R
MERRILL        FAIR      71  56  58 W10       29.83R
6HR MIN TEMP:  69; 6HR MAX TEMP:  75;

$$

WIZ029-030-035-036-043>047-190100-
CENTRAL WISCONSIN

CITY           SKY/WX    TMP DP  RH WIND       PRES   REMARKS
WAUSAU         FAIR      71  59  65 W13       29.81R
6HR MIN TEMP:  68; 6HR MAX TEMP:  75;

MOSINEE        PTCLDY    72  61  68 W14       29.84R
MARSHFIELD     FAIR      71  57  61 NW13G21   29.84R
6HR MIN TEMP:  68; 6HR MAX TEMP:  76;

STEVENS POINT  FAIR      72  59  63 W5        29.83S
6HR MIN TEMP:  66; 6HR MAX TEMP:  74;

WAUPACA        FAIR      76  61  58 W10       29.82R
6HR MIN TEMP:  73; 6HR MAX TEMP:  79;

WAUTOMA        FAIR      74  63  68 W7        29.84R
6HR MIN TEMP:  70; 6HR MAX TEMP:  77;

WISC RAPIDS    FAIR      74  61  63 W7        29.84R
6HR MIN TEMP:  68; 6HR MAX TEMP:  77;

CAMP DOUGLAS   FAIR      74  62  68 W9        29.84R
6HR MIN TEMP:  72; 6HR MAX TEMP:  77;

$$

WIZ011>013-019>022-031-037>040-048>050-190100-
NORTHEAST WISCONSIN

CITY           SKY/WX    TMP DP  RH WIND       PRES   REMARKS
ANTIGO         FAIR      69  59  71 W7        29.83R
6HR MIN TEMP:  65; 6HR MAX TEMP:  73;

SHAWANO        FAIR      76  62  60 W7        29.79R
6HR MIN TEMP:  73; 6HR MAX TEMP:  79;

OCONTO         FAIR      76  63  62 W9        29.76R
STURGEON BAY   FAIR      74  64  71 SW9       29.78R
6HR MIN TEMP:  73; 6HR MAX TEMP:  76;

GREEN BAY      FAIR      76  63  64 SW6       29.79R
6HR MIN TEMP:  73; 6HR MAX TEMP:  78;

MANITOWOC      FAIR      74  63  68 SW8       29.81S
6HR MIN TEMP:  73; 6HR MAX TEMP:  76;

APPLETON       PTCLDY    73  55  53 SW8       29.80R
CLINTONVILLE   FAIR      75  58  55 W7        29.81R
6HR MIN TEMP:  72; 6HR MAX TEMP:  78;

OSHKOSH        FAIR      75  62  64 W3        29.82R
6HR MIN TEMP:  72; 6HR MAX TEMP:  76;

$$

WIZ032>034-041-042-053>061-190100-
SOUTHWEST WISCONSIN

CITY           SKY/WX    TMP DP  RH WIND       PRES   REMARKS
LA CROSSE      FAIR      78  58  49 NW10      29.84R
6HR MIN TEMP:  76; 6HR MAX TEMP:  82;

SPARTA         FAIR      75  61  61 W7        29.85S
VIROQUA        FAIR      71  66  82 W5        29.88R
6HR MIN TEMP:  70; 6HR MAX TEMP:  76;

BOSCOBEL       FAIR      78  66  66 SW3       29.85S HX  80
6HR MIN TEMP:  75; 6HR MAX TEMP:  81;

PRAIRIE DU CHI CLOUDY    77  63  61 SW3       29.85S
PLATTEVILLE    FAIR      76  69  80 SW5       29.88S
6HR MIN TEMP:  73; 6HR MAX TEMP:  78;

$$

WIZ056-057-062-063-064-067-068-190100-
SOUTH CENTRAL WISCONSIN

CITY           SKY/WX    TMP DP  RH WIND       PRES   REMARKS
REEDSBURG      FAIR      75  63  65 SW5       29.85S
6HR MIN TEMP:  70; 6HR MAX TEMP:  78; 6HR PCP:  0.03;

BARABOO/DELLS  FAIR      75  63  65 SW5       29.86S
LONE ROCK      NOT AVBL
MINERAL POINT  MOCLDY    77  70  78 CALM      29.88S
MADISON        FAIR      76  62  62 NW3       29.85S
6HR MIN TEMP:  74; 6HR MAX TEMP:  78;

MIDDLETON      FAIR     N/A N/A N/A W3        29.86F
WATERTOWN      FAIR      75  64  68 W5        29.85F
MONROE         FAIR      77  63  62 W5        29.86F
JANESVILLE     MOCLDY    77  66  69 VRB5      29.85F
$$

WIZ051-052-058>065-066-070>072-190100-
SOUTHEAST WISCONSIN

CITY           SKY/WX    TMP DP  RH WIND       PRES   REMARKS
MILWAUKEE      MOCLDY    79  62  56 W9        29.84S HX  80
6HR MIN TEMP:  74; 6HR MAX TEMP:  81;

WAUKESHA       PTCLDY    73  61  64 W8        29.86S
MILWAUKEE/TIMM MOCLDY    75  59  57 W8        29.85S
RACINE         FAIR      77  64  64 W7        29.85F
6HR MIN TEMP:  74; 6HR MAX TEMP:  81;

KENOSHA        FAIR      76  67  73 W8        29.84F
6HR MIN TEMP:  75; 6HR MAX TEMP:  81;

FOND DU LAC    FAIR      76  62  62 SW7       29.83S
6HR MIN TEMP:  74; 6HR MAX TEMP:  79;

SHEBOYGAN      FAIR      73  63  70 SW6       29.83S
6HR MIN TEMP:  73; 6HR MAX TEMP:  77;

WEST BEND      FAIR      73  63  68 W7        29.85S
JUNEAU         FAIR      73  63  70 SW5       29.86F
6HR MIN TEMP:  71; 6HR MAX TEMP:  75;

$$

LSZ147-162-190100-
LAKE SUPERIOR

STATION/POSITION TIME  TEMP    WIND        PRES    WAVE
                       AIR SEA DIR/SP/G            HT/PER
                 (UTC) (F)     (DEG/KT/KT) (MB)    (FT/S)
W MID LAKE BUOY  2250   65 63  250/ 10/ 12 1006.7R   2/ 4
DEVILS ISLAND    2300   69     240/ 11/ 12 1007.9R
SAXON HARBOR     2330   73     250/  3/  7 1008.5S
$$

LMZ867-665-643>646-190100-
LAKE MICHIGAN

STATION/POSITION TIME  TEMP    WIND        PRES    WAVE
                       AIR SEA DIR/SP/G            HT/PER
                 (UTC) (F)     (DEG/KT/KT) (MB)    (FT/S)
S GREEN BAY BUOY 2330   78 69  250/ 12/ 16 1008.2R
N MID LAKE BUOY  2340   71 70  210/ 14/ 16 1006.8R
NORTHPORT PIER   2340   76     260/  2/  7 1006.8R
KEWAUNEE LAKESHO 2324   76     250/  7/ 15 1008.1
SHEBOYGAN LAKESH 2300   76     270/ 10/ 13 1009.9R
PORT WASHINGTON  2340   78     280/  6/ 10 1011.2R
S MID LAKE BUOY  2340   74 73  260/ 10/ 10 1010.2F
KENOSHA   LAKESH 2300   78     270/ 10/ 13 1010.5
$$

TC  - TEMPERATURE IN CELSIUS
VSB - VISIBILITY IN STATUTE MILES
WCI - WIND CHILL INDEX
HX  - HEAT INDEX




USA.gov is the U.S. government's official web portal to all federal, state and local government web resources and services.